PDT,Max TemperatureF,Mean TemperatureF,Min TemperatureF,Max Dew PointF,MeanDew PointF,Min DewpointF,Max Humidity, Mean Humidity, Min Humidity, Max Sea Level PressureIn, Mean Sea Level PressureIn, Min Sea Level PressureIn, Max VisibilityMiles, Mean VisibilityMiles, Min VisibilityMiles, Max Wind SpeedMPH, Mean Wind SpeedMPH, Max Gust SpeedMPH,PrecipitationIn, CloudCover, Events, WindDirDegrees
2013-8-1,85,72,58,56,55,50,86,59,31,30.04,29.95,29.85,10,8,4,13,3,17,0.00,3,,264
2013-8-2,87,73,59,57,56,53,90,61,32,29.94,29.89,29.84,10,9,4,15,3,20,0.00,2,,269
2013-8-3,88,75,61,58,57,53,90,61,32,29.99,29.93,29.87,10,8,3,15,3,22,0.00,3,,267
2013-8-4,90,75,60,59,56,50,90,59,28,30.02,29.94,29.87,10,7,3,14,4,22,0.00,2,,269
2013-8-5,92,77,61,57,52,36,84,50,15,30.00,29.92,29.86,10,9,5,15,3,21,0.00,0,,274
2013-8-6,90,75,59,57,52,41,87,55,23,30.03,29.96,29.91,10,8,3,16,4,23,0.00,2,,272
2013-8-7,90,75,60,56,51,38,84,51,17,30.04,29.98,29.92,10,9,5,10,3,15,0.00,0,,275
2013-8-8,90,75,59,56,51,39,78,48,17,29.96,29.91,29.85,10,10,10,16,3,23,0.00,0,,274
2013-8-9,87,73,59,56,54,48,87,57,27,29.94,29.89,29.85,10,10,8,16,4,22,0.00,0,,274
2013-8-10,85,72,58,57,54,49,87,60,32,30.04,29.96,29.91,10,7,2,15,4,21,0.00,3,,266
2013-8-11,90,75,59,56,53,46,84,56,27,29.96,29.91,29.84,10,10,8,15,3,23,0.00,0,,280
2013-8-12,91,75,59,58,56,51,93,60,26,29.97,29.90,29.83,10,8,1,14,4,23,0.00,1,,268
2013-8-13,94,77,59,59,57,49,90,56,22,29.99,29.91,29.81,10,6,0,13,3,17,0.00,2,Fog,272
2013-8-14,99,80,61,60,58,54,84,53,22,29.93,29.85,29.76,10,8,4,17,4,23,0.00,0,,272
2013-8-15,99,82,65,60,55,41,84,51,17,29.90,29.86,29.81,10,9,5,18,4,24,0.00,0,,270
2013-8-16,98,82,66,59,54,48,73,47,20,29.91,29.89,29.84,10,10,8,17,4,24,0.00,0,,274
2013-8-17,99,83,67,57,53,42,63,40,16,29.91,29.84,29.75,10,10,10,16,4,22,0.00,0,,269
2013-8-18,96,81,66,58,54,41,68,44,19,29.86,29.80,29.75,10,10,10,16,4,22,0.00,1,,270
2013-8-19,92,79,66,61,59,55,78,54,30,29.90,29.86,29.79,10,10,4,10,5,17,0.02,2,Rain-Thunderstorm,268
2013-8-20,95,80,65,60,57,50,84,53,22,29.88,29.84,29.78,10,10,8,15,4,22,0.00,1,,276
2013-8-21,101,83,65,57,51,43,73,45,16,29.88,29.84,29.77,10,10,10,16,4,22,0.00,0,,271
2013-8-22,100,83,66,50,45,36,56,35,14,29.88,29.83,29.75,10,10,9,15,3,23,0.00,0,,268
2013-8-23,99,83,67,52,45,33,49,30,11,29.83,29.76,29.67,10,10,10,17,4,24,0.00,0,,274
2013-8-24,98,81,64,56,50,39,73,44,14,29.84,29.77,29.70,10,10,10,17,4,24,0.00,0,,270
2013-8-25,97,82,66,60,52,40,68,42,16,29.88,29.83,29.78,10,10,10,17,5,25,0.00,0,,280
2013-8-26,92,82,72,64,59,53,53,45,36,29.89,29.84,29.77,10,10,10,14,3,18,0.00,2,,62
2013-8-27,97,85,73,61,58,49,64,47,29,29.81,29.76,29.71,10,10,10,20,4,25,0.00,1,,281
2013-8-28,100,86,72,58,54,48,49,37,24,29.86,29.79,29.75,10,10,10,17,4,23,0.00,0,,277
2013-8-29,104,88,72,71,57,48,46,34,21,29.91,29.87,29.81,10,10,10,24,2,40,T,2,Rain,297
2013-8-30,99,89,79,73,67,57,59,47,35,29.94,29.90,29.86,10,10,10,18,6,25,0.00,2,Rain,319
2013-8-31,95,87,79,69,68,66,69,55,41,29.93,29.89,29.82,10,10,10,18,4,26,0.00,2,,255